�N����,����,�~����,�C��,���x,�C��,����,���ϕ���,�ő�u�ԕ���,�ő厞����,���˗�,�I�_���x,�n�����x,�ő啗���N��,DTYPE
"23/10/25","00:10",0.0,13.1,88.5,1013.0,294.9,1.2,1.9,318.2,0.00,11.3,16.5,"00:07:22",1
"23/10/25","00:20",0.0,12.8,88.7,1013.0,304.3,0.8,1.3,303.3,0.00,11.0,16.6,"00:10:12",1
"23/10/25","00:30",0.0,12.7,89.1,1013.0,304.6,1.8,2.2,323.6,0.00,11.0,16.4,"00:28:02",1
"23/10/25","00:40",0.0,12.9,89.4,1013.0,313.5,1.7,2.4,311.2,0.00,11.2,16.2,"00:31:58",1
"23/10/25","00:50",0.0,13.0,89.7,1012.8,297.0,1.6,2.5,323.9,0.00,11.4,16.1,"00:43:48",1
"23/10/25","01:00",0.0,13.5,89.5,1013.0,294.5,1.8,3.7,310.5,0.00,11.8,16.4,"00:55:10",1
"23/10/25","01:10",0.0,13.7,89.1,1013.0,304.7,2.0,3.3,315.9,0.00,12.0,16.3,"01:01:08",1
"23/10/25","01:20",0.0,13.9,88.6,1013.0,304.3,2.1,3.3,316.3,0.00,12.1,16.0,"01:12:04",1
"23/10/25","01:30",0.0,13.9,87.9,1013.5,314.4,1.7,3.4,337.0,0.00,12.0,16.1,"01:22:34",1
"23/10/25","01:40",0.0,13.6,87.5,1013.0,308.5,1.5,2.4,325.4,0.00,11.6,16.1,"01:30:48",1
"23/10/25","01:50",0.0,13.6,87.5,1013.0,318.2,2.2,3.4,330.9,0.00,11.6,16.1,"01:45:40",1
"23/10/25","02:00",0.0,13.6,87.4,1012.8,308.9,2.1,3.5,332.2,0.00,11.6,16.1,"01:50:22",1
"23/10/25","02:10",0.0,13.8,87.6,1012.8,300.4,2.1,4.2,310.0,0.00,11.8,16.0,"02:08:34",1
"23/10/25","02:20",0.0,13.8,87.3,1012.3,319.9,2.6,4.5,323.2,0.00,11.8,16.2,"02:12:40",1
"23/10/25","02:30",0.0,13.8,87.1,1012.6,314.0,1.7,4.4,329.9,0.00,11.7,16.2,"02:29:20",1
"23/10/25","02:40",0.0,13.6,86.8,1012.3,322.9,1.8,3.3,336.0,0.00,11.5,16.1,"02:33:52",1
"23/10/25","02:50",0.0,13.3,87.1,1012.3,311.0,1.5,2.7,301.8,0.00,11.2,16.2,"02:48:12",1
"23/10/25","03:00",0.0,13.0,87.4,1012.1,311.6,1.6,2.4,324.0,0.00,11.0,16.1,"02:58:40",1
"23/10/25","03:10",0.0,12.9,88.1,1012.3,304.2,1.8,3.2,315.0,0.00,11.0,16.2,"03:07:42",1
"23/10/25","03:20",0.0,13.1,88.6,1012.3,308.6,2.0,3.1,314.7,0.00,11.3,15.9,"03:16:12",1
"23/10/25","03:30",0.0,13.1,88.8,1011.6,285.2,1.5,2.8,309.1,0.00,11.3,16.0,"03:20:32",1
"23/10/25","03:40",0.0,12.9,89.1,1012.1,289.2,1.3,2.0,286.4,0.00,11.2,16.0,"03:38:10",1
"23/10/25","03:50",0.0,12.7,89.4,1012.1,291.5,1.6,2.1,312.5,0.00,11.0,16.1,"03:48:52",1
"23/10/25","04:00",0.0,12.6,89.6,1012.3,314.6,1.3,2.6,311.4,0.00,11.0,15.9,"03:51:12",1
"23/10/25","04:10",0.0,12.0,89.8,1012.3,293.1,1.3,1.8,281.9,0.00,10.4,16.1,"04:00:58",1
"23/10/25","04:20",0.0,11.7,90.2,1012.3,290.8,1.5,1.8,283.7,0.00,10.2,15.9,"04:14:40",1
"23/10/25","04:30",0.0,11.7,90.6,1012.1,308.9,2.0,2.2,318.2,0.00,10.3,15.7,"04:28:16",1
"23/10/25","04:40",0.0,11.3,90.9,1012.3,295.3,1.6,2.1,326.5,0.00,9.9,15.9,"04:30:24",1
"23/10/25","04:50",0.0,11.8,91.5,1012.6,289.3,2.0,3.4,321.6,0.00,10.5,15.8,"04:48:16",1
"23/10/25","05:00",0.0,11.9,91.7,1012.1,314.1,1.8,2.4,312.6,0.00,10.6,15.7,"04:51:28",1
"23/10/25","05:10",0.0,11.3,91.9,1011.9,317.1,2.1,2.5,326.8,0.00,10.1,15.8,"05:02:42",1
"23/10/25","05:20",0.0,10.9,92.2,1012.3,296.9,1.3,1.7,312.6,0.00,9.7,15.8,"05:10:24",1
"23/10/25","05:30",0.0,10.8,92.5,1012.1,305.1,1.6,2.2,319.5,0.00,9.7,15.7,"05:21:12",1
"23/10/25","05:40",0.0,10.5,92.7,1012.3,296.9,1.6,1.8,311.5,0.00,9.4,15.8,"05:39:12",1
"23/10/25","05:50",0.0,10.4,92.9,1011.6,309.0,1.8,2.2,316.7,0.00,9.3,15.5,"05:44:32",1
"23/10/25","06:00",0.0,10.3,93.1,1011.9,297.9,1.2,1.8,319.4,0.00,9.3,15.8,"05:50:56",1
"23/10/25","06:10",0.0,10.5,93.3,1011.9,305.3,1.3,2.2,316.6,0.00,9.5,15.6,"06:08:40",1
"23/10/25","06:20",0.0,10.4,93.5,1011.9,302.4,1.8,2.1,307.1,0.00,9.4,15.8,"06:15:44",1
"23/10/25","06:30",0.0,10.3,93.7,1012.1,309.9,1.8,2.1,317.1,0.00,9.4,15.3,"06:28:16",1
"23/10/25","06:40",0.0,10.7,93.9,1012.3,309.5,1.7,2.2,312.1,0.00,9.8,15.6,"06:32:24",1
"23/10/25","06:50",0.0,11.1,94.0,1012.1,314.9,2.3,2.5,310.3,0.00,10.2,15.6,"06:40:16",1
"23/10/25","07:00",0.0,11.4,94.1,1012.3,294.9,1.6,2.1,315.3,0.00,10.5,15.4,"06:50:08",1
"23/10/25","07:10",0.0,12.0,94.2,1012.3,311.7,1.7,2.4,310.0,0.01,11.1,15.3,"07:08:56",1
"23/10/25","07:20",0.0,12.3,94.2,1012.3,313.3,1.6,2.2,310.4,0.02,11.4,15.3,"07:15:06",1
"23/10/25","07:30",0.0,12.6,94.4,1012.6,301.7,1.6,2.6,306.2,0.02,11.8,15.3,"07:28:24",1
"23/10/25","07:40",0.0,13.1,94.3,1012.6,318.5,1.7,2.8,323.2,0.03,12.2,15.4,"07:32:48",1
"23/10/25","07:50",0.0,13.2,94.1,1013.0,311.5,2.0,3.1,324.5,0.04,12.3,15.4,"07:42:16",1
"23/10/25","08:00",0.0,13.5,93.7,1012.8,295.6,1.6,2.6,319.7,0.05,12.5,15.5,"07:57:44",1
"23/10/25","08:10",0.0,13.8,93.2,1013.0,310.2,2.2,3.6,343.7,0.07,12.8,15.3,"08:07:58",1
"23/10/25","08:20",0.0,14.2,92.5,1013.0,314.1,2.1,4.2,329.9,0.07,13.0,15.5,"08:11:30",1
"23/10/25","08:30",0.0,14.6,91.4,1012.8,310.7,1.5,3.4,2.5,0.09,13.3,15.7,"08:27:50",1
"23/10/25","08:40",0.0,14.8,90.2,1013.0,311.5,1.7,2.9,322.2,0.08,13.3,15.5,"08:34:24",1
"23/10/25","08:50",0.0,15.2,89.0,1013.0,310.0,1.8,3.3,339.1,0.13,13.4,15.6,"08:43:28",1
"23/10/25","09:00",0.0,16.0,87.2,1013.3,300.5,1.3,2.9,328.0,0.18,13.9,15.7,"08:59:44",1
"23/10/25","09:10",0.0,16.6,85.3,1013.3,285.2,1.2,2.8,331.3,0.22,14.2,15.6,"09:00:32",1
"23/10/25","09:20",0.0,17.5,81.8,1013.5,311.1,1.3,3.4,344.6,0.28,14.4,15.6,"09:16:24",1
"23/10/25","09:30",0.0,18.3,78.1,1012.8,272.9,0.6,1.9,319.3,0.17,14.5,15.7,"09:24:08",1
"23/10/25","09:40",0.0,18.2,75.4,1013.0,269.1,1.5,2.9,238.7,0.20,13.8,15.9,"09:38:16",1
"23/10/25","09:50",0.0,19.0,75.6,1012.6,260.4,1.2,2.9,235.8,0.31,14.6,15.8,"09:40:02",1
"23/10/25","10:00",0.0,19.5,72.6,1012.6,256.4,1.3,2.6,235.7,0.32,14.5,15.8,"09:53:44",1
"23/10/25","10:10",0.0,20.4,69.2,1012.1,323.5,0.6,1.4,306.5,0.34,14.6,15.9,"10:05:20",1
"23/10/25","10:20",0.0,20.4,66.9,1012.1,253.5,1.6,3.1,245.1,0.29,14.1,15.9,"10:18:08",1
"23/10/25","10:30",0.0,20.1,69.3,1011.6,226.6,1.8,3.2,216.6,0.36,14.3,16.2,"10:26:16",1
"23/10/25","10:40",0.0,21.0,67.6,1011.2,216.4,0.8,1.9,217.2,0.37,14.8,16.1,"10:30:40",1
"23/10/25","10:50",0.0,21.4,66.7,1011.2,211.4,0.8,2.0,217.2,0.33,15.0,16.2,"10:40:08",1
"23/10/25","11:00",0.0,22.1,65.2,1010.7,226.0,0.8,1.9,198.2,0.39,15.3,16.2,"10:50:08",1
"23/10/25","11:10",0.0,22.4,64.0,1010.2,230.7,1.0,2.7,240.1,0.39,15.3,16.5,"11:04:48",1
"23/10/25","11:20",0.0,22.8,61.0,1010.0,176.7,1.2,4.1,199.6,0.41,14.9,16.6,"11:18:32",1
"23/10/25","11:30",0.0,22.6,60.4,1009.7,225.3,2.5,4.0,209.4,0.42,14.6,16.5,"11:21:52",1
"23/10/25","11:40",0.0,22.8,60.9,1009.3,246.2,2.1,4.8,230.4,0.41,14.9,16.7,"11:36:24",1
"23/10/25","11:50",0.0,23.2,58.5,1009.0,244.6,2.0,4.5,230.3,0.41,14.7,16.8,"11:42:32",1
"23/10/25","12:00",0.0,23.6,55.3,1008.8,258.1,1.3,2.9,238.3,0.42,14.2,16.8,"11:59:36",1
"23/10/25","12:10",0.0,24.0,52.8,1008.8,317.8,1.5,3.3,337.1,0.42,13.8,17.2,"12:02:08",1
"23/10/25","12:20",0.0,24.0,50.3,1008.3,285.6,1.7,3.5,236.6,0.41,13.1,17.0,"12:17:44",1
"23/10/25","12:30",0.0,24.1,49.9,1008.3,248.2,1.8,5.2,236.1,0.41,13.0,17.2,"12:22:00",1
"23/10/25","12:40",0.0,24.0,49.6,1008.1,251.3,2.3,6.5,231.1,0.42,12.9,17.2,"12:37:20",1
"23/10/25","12:50",0.0,24.0,49.5,1007.6,243.0,2.6,5.2,242.3,0.41,12.8,17.3,"12:49:20",1
"23/10/25","13:00",0.0,24.3,49.5,1007.6,241.4,2.8,6.2,238.1,0.39,13.1,17.7,"12:52:40",1
"23/10/25","13:10",0.0,24.9,45.9,1007.1,292.5,1.5,3.5,347.6,0.39,12.5,17.4,"13:05:04",1
"23/10/25","13:20",0.0,24.7,47.0,1007.1,294.7,1.7,3.5,348.0,0.39,12.7,17.7,"13:11:44",1
"23/10/25","13:30",0.0,24.9,45.2,1006.4,253.5,1.7,4.2,234.5,0.37,12.3,17.7,"13:29:04",1
"23/10/25","13:40",0.0,25.0,41.4,1006.7,261.9,1.5,4.1,206.6,0.36,11.0,18.1,"13:36:08",1
"23/10/25","13:50",0.0,25.0,41.8,1006.7,317.1,1.6,4.1,350.6,0.34,11.2,17.8,"13:43:04",1
"23/10/25","14:00",0.0,24.9,44.3,1006.4,243.4,2.3,5.0,243.3,0.35,12.0,18.0,"13:55:12",1
"23/10/25","14:10",0.0,24.2,41.4,1006.7,319.0,2.2,4.5,235.0,0.20,10.3,17.9,"14:00:40",1
"23/10/25","14:20",0.6,22.0,57.0,1007.8,350.2,2.6,5.8,309.6,0.21,13.1,18.1,"14:15:52",1
"23/10/25","14:30",0.2,20.9,65.0,1007.6,343.9,1.6,4.8,336.5,0.16,14.1,18.0,"14:22:00",1
"23/10/25","14:40",0.0,19.9,68.5,1008.1,330.8,1.6,3.2,331.0,0.07,14.0,18.2,"14:39:52",1
"23/10/25","14:50",0.0,19.2,68.4,1008.1,338.9,2.8,6.3,351.2,0.07,13.3,18.3,"14:45:54",1
"23/10/25","15:00",0.0,20.0,68.1,1008.3,331.2,2.0,3.9,341.1,0.21,14.0,18.2,"14:51:36",1
"23/10/25","15:10",0.0,20.8,62.9,1008.3,331.8,2.5,6.0,334.2,0.19,13.5,18.2,"15:08:40",1
"23/10/25","15:20",0.0,21.3,60.0,1008.3,350.4,2.0,4.0,37.1,0.13,13.3,18.2,"15:17:12",1
"23/10/25","15:30",0.0,21.2,58.2,1008.6,349.4,2.1,4.2,24.5,0.08,12.7,18.2,"15:24:56",1
"23/10/25","15:40",0.0,21.4,58.5,1008.3,344.9,1.8,4.1,4.0,0.09,13.0,18.2,"15:33:04",1
"23/10/25","15:50",0.0,21.1,60.0,1008.3,333.2,2.0,4.1,325.8,0.04,13.1,17.9,"15:40:02",1
"23/10/25","16:00",0.0,21.2,59.3,1008.1,329.2,2.0,4.3,327.1,0.05,13.0,18.1,"15:52:08",1
"23/10/25","16:10",0.0,21.1,58.9,1008.3,322.7,2.2,5.1,338.4,0.04,12.8,18.1,"16:04:00",1
"23/10/25","16:20",0.0,20.8,60.4,1008.3,330.6,2.3,4.4,337.8,0.02,12.9,18.3,"16:11:12",1
"23/10/25","16:30",0.0,20.3,62.3,1008.6,329.0,2.6,5.0,338.7,0.01,12.9,18.2,"16:22:48",1
"23/10/25","16:40",0.0,19.8,64.0,1008.8,336.2,2.1,3.6,330.1,0.00,12.8,18.2,"16:30:24",1
"23/10/25","16:50",0.0,19.2,65.4,1008.6,303.1,1.1,3.2,243.7,0.00,12.6,18.1,"16:41:20",1
"23/10/25","17:00",0.0,18.6,67.7,1009.0,293.9,1.0,2.2,315.5,0.00,12.6,18.1,"16:59:04",1
"23/10/25","17:10",0.0,18.4,68.9,1009.0,291.0,1.2,2.0,313.6,0.00,12.6,17.9,"17:01:04",1
"23/10/25","17:20",0.0,18.2,69.9,1009.3,301.5,1.3,2.1,314.5,0.00,12.7,18.0,"17:19:36",1
"23/10/25","17:30",0.0,17.6,71.0,1009.7,297.5,1.2,2.6,316.7,0.00,12.3,17.9,"17:29:52",1
"23/10/25","17:40",0.0,17.4,72.5,1010.0,324.5,1.5,2.2,1.9,0.00,12.5,17.9,"17:38:16",1
"23/10/25","17:50",0.0,16.7,74.9,1010.0,334.9,1.5,2.5,332.2,0.00,12.3,17.8,"17:41:20",1
"23/10/25","18:00",0.0,16.2,77.2,1010.0,305.7,1.3,2.1,319.0,0.00,12.2,17.8,"17:55:18",1
"23/10/25","18:10",0.0,16.0,78.8,1010.2,294.0,1.2,1.8,330.4,0.00,12.4,17.7,"18:05:42",1
"23/10/25","18:20",0.0,15.5,79.6,1009.7,287.4,0.8,1.1,301.2,0.00,12.0,17.8,"18:16:46",1
"23/10/25","18:30",0.0,15.1,81.0,1010.0,290.7,1.2,2.4,325.1,0.00,11.9,17.7,"18:29:52",1
"23/10/25","18:40",0.0,15.7,81.5,1010.2,294.7,1.5,3.2,330.1,0.00,12.6,17.6,"18:32:16",1
"23/10/25","18:50",0.0,15.4,81.7,1010.2,272.2,1.1,1.4,259.8,0.00,12.3,17.6,"18:44:46",1
"23/10/25","19:00",0.0,14.9,82.3,1010.4,295.8,0.8,1.4,305.4,0.00,12.0,17.5,"18:57:54",1
"23/10/25","19:10",0.0,14.4,82.9,1010.4,297.0,1.0,1.3,310.6,0.00,11.6,17.6,"19:00:08",1
"23/10/25","19:20",0.0,14.0,83.6,1010.0,298.1,1.1,1.6,312.7,0.00,11.3,17.5,"19:15:30",1
"23/10/25","19:30",0.0,13.6,84.4,1010.4,285.5,1.1,1.1,293.1,0.00,11.1,17.2,"19:21:40",1
"23/10/25","19:40",0.0,13.5,85.2,1010.4,295.9,0.8,1.8,313.9,0.00,11.1,17.3,"19:34:10",1
"23/10/25","19:50",0.0,13.1,86.0,1010.4,295.1,1.5,2.1,316.4,0.00,10.9,17.3,"19:49:24",1
"23/10/25","20:00",0.0,13.0,86.6,1010.7,299.3,1.2,2.0,308.6,0.00,10.9,16.9,"19:56:56",1
"23/10/25","20:10",0.0,13.4,87.7,1010.4,307.3,1.6,2.7,302.5,0.00,11.4,17.3,"20:05:18",1
"23/10/25","20:20",0.0,13.2,88.2,1010.4,288.8,1.1,1.9,319.5,0.00,11.3,17.1,"20:14:54",1
"23/10/25","20:30",0.0,12.9,88.9,1010.9,289.2,1.6,2.5,321.2,0.00,11.2,17.2,"20:23:30",1
"23/10/25","20:40",0.0,12.9,89.5,1010.7,311.2,1.3,2.6,318.6,0.00,11.3,16.9,"20:35:52",1
"23/10/25","20:50",0.0,12.7,90.1,1010.9,293.1,1.6,2.0,310.8,0.00,11.2,17.1,"20:48:06",1
"23/10/25","21:00",0.0,12.9,90.6,1010.9,299.3,1.7,2.2,319.9,0.00,11.4,17.0,"20:54:08",1
"23/10/25","21:10",0.0,13.1,90.9,1011.4,294.2,1.6,2.1,297.3,0.00,11.7,16.7,"21:01:32",1
"23/10/25","21:20",0.0,13.0,91.3,1011.2,285.6,1.6,2.4,285.2,0.00,11.7,16.8,"21:16:56",1
"23/10/25","21:30",0.0,13.3,91.6,1010.9,301.6,1.8,2.9,321.2,0.00,12.0,16.9,"21:28:36",1
"23/10/25","21:40",0.0,13.6,91.7,1011.2,315.2,2.1,3.4,342.3,0.00,12.3,16.7,"21:35:48",1
"23/10/25","21:50",0.0,13.7,91.6,1011.2,297.6,1.8,2.8,321.7,0.00,12.4,16.7,"21:49:28",1
"23/10/25","22:00",0.0,13.7,91.5,1010.9,282.5,1.5,2.2,317.8,0.00,12.4,16.5,"21:50:08",1
"23/10/25","22:10",0.0,13.6,91.6,1010.9,285.5,1.5,2.5,297.6,0.00,12.3,16.7,"22:08:16",1
"23/10/25","22:20",0.0,13.6,91.6,1011.2,288.3,1.5,2.5,312.4,0.00,12.3,16.7,"22:18:46",1
"23/10/25","22:30",0.0,13.6,91.6,1011.6,296.3,1.6,2.5,272.8,0.00,12.3,16.7,"22:26:12",1
"23/10/25","22:40",0.0,13.4,91.6,1011.4,285.6,1.2,2.1,301.2,0.00,12.1,16.4,"22:31:42",1
"23/10/25","22:50",0.0,12.9,91.7,1011.2,286.4,1.2,2.1,307.6,0.00,11.6,16.3,"22:49:28",1
"23/10/25","23:00",0.0,12.5,91.8,1010.9,311.8,2.0,2.4,314.2,0.00,11.2,16.4,"22:56:16",1
"23/10/25","23:10",0.0,12.4,92.1,1010.7,304.1,1.7,2.1,305.2,0.00,11.2,16.6,"23:03:52",1
"23/10/25","23:20",0.0,12.5,92.2,1010.9,296.4,1.5,2.1,303.9,0.00,11.3,16.4,"23:12:18",1
"23/10/25","23:30",0.0,12.2,92.5,1011.4,294.0,1.8,2.5,325.5,0.00,11.1,16.2,"23:26:06",1
"23/10/25","23:40",0.0,12.5,92.8,1010.9,304.9,2.0,4.1,306.5,0.00,11.4,16.6,"23:37:12",1
"23/10/25","23:50",0.0,12.6,92.9,1010.9,300.1,1.5,2.6,318.0,0.00,11.5,16.3,"23:43:28",1
"23/10/25","24:00",0.0,12.2,93.0,1010.9,292.8,1.3,2.4,318.3,0.00,11.1,16.2,"23:57:18",1
